This is the latest recevied weather packets stored in our database for station/object KG4ZVW. If no packets are shown the sender has not sent any weather packets the latest 10 day(s).
| Time | Temp. | Humidity | Pressure | Rain* | Wind** | Luminosity | Snow |
|---|---|---|---|---|---|---|---|
| 1777658004 | 34.44° C | 47% | 1010.5 hPa | 0 mm | - | 1025 W/m² | - |
| 1777657697 | 34.44° C | 49% | 1010.5 hPa | 0 mm | - | 1051 W/m² | - |
| 1777657395 | 33.89° C | 51% | 1010.5 hPa | 0 mm | - | 1013 W/m² | - |
| 1777657112 | 33.89° C | 49% | 1010.6 hPa | 0 mm | - | 338 W/m² | - |
| 1777656806 | 33.33° C | 50% | 1010.6 hPa | 0 mm | - | 1030 W/m² | - |
| 1777656502 | 33.33° C | 50% | 1010.6 hPa | 0 mm | - | 1007 W/m² | - |
| 1777656197 | 32.78° C | 51% | 1010.8 hPa | 0 mm | - | 1027 W/m² | - |
| 1777655896 | 32.78° C | 51% | 1010.8 hPa | 0 mm | - | 1028 W/m² | - |
| 1777655615 | 32.78° C | 51% | 1010.8 hPa | 0 mm | - | 204 W/m² | - |
| 1777655309 | 32.78° C | 52% | 1010.9 hPa | 0 mm | - | 1107 W/m² | - |
| 1777655006 | 33.33° C | 51% | 1010.9 hPa | 0 mm | - | 248 W/m² | - |
| 1777654703 | 33.33° C | 51% | 1010.9 hPa | 0 mm | - | 1009 W/m² | - |
| 1777654399 | 32.78° C | 56% | 1011.2 hPa | 0 mm | - | 986 W/m² | - |
| 1777654097 | 32.78° C | 56% | 1011.2 hPa | 0 mm | - | 974 W/m² | - |
| 1777653812 | 32.78° C | 57% | 1011.2 hPa | 0 mm | - | 1007 W/m² | - |
| 1777653510 | 32.78° C | 55% | 1011.2 hPa | 0 mm | - | 993 W/m² | - |
| 1777653204 | 32.22° C | 55% | 1011.2 hPa | 0 mm | - | 976 W/m² | - |
| 1777652899 | 32.22° C | 56% | 1011.2 hPa | 0 mm | - | 960 W/m² | - |
| 1777652611 | 32.22° C | 56% | 1011.3 hPa | 0 mm | - | 243 W/m² | - |
| 1777652305 | 32.22° C | 57% | 1011.3 hPa | 0 mm | - | 972 W/m² | - |
| 1777652005 | 32.22° C | 55% | 1011.3 hPa | 0 mm | - | 814 W/m² | - |
| 1777651698 | 32.22° C | 56% | 1011.3 hPa | 0 mm | - | 919 W/m² | - |
| 1777651415 | 32.22° C | 63% | 1011.3 hPa | 0 mm | - | 907 W/m² | - |
| 1777651111 | 31.67° C | 60% | 1011.3 hPa | 0 mm | - | 889 W/m² | - |
| 1777650809 | 31.67° C | 58% | 1011.4 hPa | 0 mm | - | 879 W/m² | - |
* Rain latest hour (hover to see other rain measurements)
** Current wind speed in m/s (hover to see current wind gust speed)